Location: Aalen
(48.8330°N, 10.1000°E)
Time: 13:45:46
(UTC+01:00)

Tiangong - Visible Passes

Search period start: 28 November 2022 00:00
Search period end: 08 December 2022 00:00
Orbit: 386 x 393 km, 41.5° (Epoch: 28 November)

Date Brightness Start Highest point End Pass type
(mag) Time Alt. Az. Time Alt. Az. Time Alt. Az.
01 Dec 0.4 18:43:18 10° SSW 18:44:29 15° S 18:44:29 15° S visible
02 Dec 0.4 17:45:54 10° S 17:47:25 13° SSE 17:48:56 10° SE visible
02 Dec 1.2 19:21:10 10° SW 19:21:21 11° SW 19:21:21 11° SW visible
03 Dec -0.2 18:23:13 10° SW 18:25:37 20° S 18:25:52 20° SSE visible
04 Dec 0.2 17:25:23 10° SSW 17:27:31 17° SSE 17:29:40 10° ESE visible
04 Dec 0.5 19:01:20 10° SW 19:02:38 17° SW 19:02:38 17° SW visible
05 Dec -0.1 18:03:10 10° SW 18:05:41 22° S 18:07:05 16° SE visible
06 Dec 0.1 17:05:04 10° SW 17:07:30 20° S 17:09:56 10° ESE visible
06 Dec 0.1 18:41:28 10° WSW 18:43:50 19° S 18:43:50 19° S visible
07 Dec 0.0 17:43:06 10° SW 17:45:36 21° S 17:48:07 10° SE visible
07 Dec 1.2 19:20:25 10° SW 19:20:37 11° SW 19:20:37 11° SW visible
